COSMOS 2251 DEB

Satellite information

Favourite Embed

Satellite Type and Status

DEBRISIN ORBIT

Key statistics

Satellite COSMOS 2251 DEB at a glance.

Uptime

11708

Days in orbit

Revolutions

≈ 14.1

Per day

Orbit

LEO

Low Earth Orbit

Inclination

74.1

Latest

Satellite identification and parameters

Extended collection of information and parameters for COSMOS 2251 DEB.

Object identification

Identified? True

Debris? True

Object name: COSMOS 2251 DEB

International designator: 1993-036BNN

Object number (NORAD): 37533

Object ID (CCSDS): 37533

Country: COMMONWEALTH OF INDEPENDENT STATES (CIS)

Current information (Y/N): Y

RCS size: SMALL

Orbital parameters

Period: 102.05 minutes

Inclination: 74.0689 deg

SMA: 7233.849 km

Apoapsis: 971.39 km

Periapsis: 740.039 km

RAAN: 116.5258 deg

Eccentricy: 0.0159909

Argument of periapsis: 211.7645 deg

Mean anomaly: 147.3774 deg

Mean motion: 14.11070035 rev/day

Mean motion (dot): 0.00001213 rev/day2

B* drag term: 0.00061042 1/REarth

Two-line elements (TLE)

Creation date: July 4, 2025, 6:39 p.m.

Reference frame: TEME

Reference center: EARTH

Epoch: July 4, 2025, 1:54 a.m. UTC

TLE line 0: 0 COSMOS 2251 DEB

TLE line 1: 1 37533U 93036BNN 25185.07944360 .00001213 00000-0 61042-3 0 9999

TLE line 2: 2 37533 74.0689 116.5258 0159909 211.7645 147.3774 14.11070035606405

Live tracking on map

Real-time ground track for satellite COSMOS 2251 DEB.

In-orbit conjunctions

A list of the most updated potential collisions computed for object COSMOS 2251 DEB.

Target Orbit TCA Probability of collision Miss distance Type
FEDSAT SSO 2025-04-15 20:55:09 0.0005594599 159.0 (m) PAYLOAD
CZ-6A DEB LEO 2024-11-14 21:23:42 0.0001956681 668.0 (m) DEBRIS

Associated space launch

Military communications satellite. Destroyed in a collision with Iridium 33.

COSMOS 2251 DEB was lifted into orbit during the mission ‘Kosmos-3M | Strela-2M 51’, on board a Kosmos-3M space rocket.

The launch took place on June 16, 1993, 4:17 a.m. from 132/1 (132L).

For more information about the launch, click the button.

Launch to space Kosmos-3M | Strela-2M 51
Kosmos-3M | Strela-2M 51

Agency: N/A

Status: Launch Successful

Launch date: June 16, 1993, 4:17 a.m. UTC

Rocket: Kosmos-3M

Launch pad: 132/1 (132L)

Location: Plesetsk Cosmodrome, Russian Federation

...

Latest news about this satellite

There are no fresh news available about this satellite. Check back as we update our databases every day.


Newsletter sign-up

Weekly statistics, charts and insights to help you stay on top of the space industry.